Regional Weather Roundup
Issued by NWS

Home | Current Version | Previous Version | Text Only | Print | Product List | Glossary Off
Versions: 1 2 3 4 5 6 7 8 9 10 11 12 13 14 15 16 17 18 19 20 21 22 23 24 25 26 27 28 29 30 31 32 33 34 35 36 37 38 39 40 41 42 43 44 45 46 47 48 49 50

000
ASUS45 KCYS 042210
RWRWY

WYOMING REGIONAL WEATHER ROUNDUP
NATIONAL WEATHER SERVICE CHEYENNE WY
400 PM MDT TUE AUG 04 2015

NOTE:  "FAIR" INDICATES FEW OR NO CLOUDS BELOW 12,000 FEET
WITH NO SIGNIFICANT WEATHER AND/OR OBSTRUCTIONS TO VISIBILITY.

WYZ001-042300-
YELLOWSTONE NATIONAL PARK

CITY           SKY/WX    TMP DP  RH WIND       PRES   REMARKS
LK YELLOWSTONE   N/A     69  38  32 W8        30.24F
W YELLOWSTONE  NOT AVBL

$$
WYZ002>013-054>058-071-098>099-042300-
NORTHERN WYOMING

CITY           SKY/WX    TMP DP  RH WIND       PRES   REMARKS
JACKSON        MOSUNNY   77  43  29 SW10      30.17F
CODY           FAIR      72  55  56 N13       30.06F
GREYBULL       FAIR      79  52  38 N10G22    29.98F
WORLAND        FAIR      80  50  34 NE9       30.01F
SHERIDAN       PTSUNNY   71  56  58 NW10      30.03S
BUFFALO        CLOUDY    65  58  78 NW10      30.08S
GILLETTE       RAIN      66  58  75 W18       29.97F
HULETT         FAIR      72  59  64 SE9       29.98F
NEWCASTLE      FAIR      82  50  32 S7        29.97F

$$
WYZ014>020-022>026-101>103-042300-
CENTRAL WYOMING

CITY           SKY/WX    TMP DP  RH WIND       PRES   REMARKS
BIG PINEY      FAIR      78  35  21 W12G26    30.23F
PINEDALE       FAIR      73  36  25 W15G29    30.23F
DUBOIS         FAIR      73  36  25 W22       30.19S
LANDER         FAIR      83  47  28 NE9       30.06F
RIVERTON       FAIR      81  49  32 E14G25    30.08F
CASPER         PTSUNNY   75  51  43 N12       30.06S
DOUGLAS        FAIR      76  53  44 NW8       30.05S

$$
WYZ021-027>030-104>119-042300-
SOUTHERN WYOMING

CITY           SKY/WX    TMP DP  RH WIND       PRES   REMARKS
EVANSTON       FAIR      80  40  23 SW15G24   30.25F
KEMMERER       FAIR      77  41  27 W15G24    30.26F
FORT BRIDGER   MOCLDY    81  43  26 NW13      30.27F
ROCK SPRINGS   FAIR      79  35  20 W24G35    30.21F
DIXON          FAIR      83  35  17 W17G29    30.23S
RAWLINS        PTSUNNY   79  43  27 W28G35    30.17F
SARATOGA       MOCLDY    79  41  25 W23G32    30.21F
LARAMIE        FAIR      77  45  32 W28G37    30.18F
CHEYENNE       PTSUNNY   79  47  32 W25G35    30.11F
TORRINGTON     CLOUDY    71  60  68 NE14      30.00S
PINE BLUFFS    CLOUDY    77  46  33 NW15G22   30.05F

$$



USA.gov is the U.S. government's official web portal to all federal, state and local government web resources and services.